Theta_e
320 323 323 323 327 326 328 326 326 329 334 331 332 339 348 347 352 354 340 346 347 348 346 340 338 337 335 335 334 334 333 332 332 332 332 331 332 333 333 333 334 331 329 328 326 327 330 332 333
319 322 323 325 326 327 327 326 325 332 333 334 338 341 342 346 341 341 339 343 344 345 345 341 339 338 337 336 336 335 334 334 332 332 333 333 333 333 331 330 329 329 328 326 326 328 331 332 332
320 322 324 328 328 326 328 326 326 332 331 332 334 336 335 331 331 337 339 339 340 344 347 344 340 339 339 338 337 336 335 334 334 333 332 332 332 329 328 328 327 327 327 326 327 329 332 332 332
321 324 324 325 327 327 326 326 324 328 326 329 334 336 327 322 327 335 334 338 341 340 340 341 339 339 338 338 338 337 336 335 335 334 333 332 331 329 327 326 327 327 327 328 329 330 331 332 332
321 324 328 327 327 325 324 323 323 328 327 330 331 335 328 323 333 325 325 335 339 340 341 341 341 341 341 341 340 339 338 337 336 335 335 334 333 332 330 328 326 327 328 329 330 330 330 331 331
323 324 328 329 327 324 322 323 324 325 327 329 332 333 324 322 326 321 321 333 335 338 340 341 341 341 341 340 339 339 338 337 337 337 336 335 335 334 333 332 329 328 328 329 329 329 330 331 331
322 327 327 328 327 324 322 322 324 325 326 323 328 333 322 318 318 318 318 323 325 326 327 328 331 333 337 339 339 340 339 337 336 337 337 336 336 336 335 334 333 331 328 328 329 329 328 329 330
318 324 326 326 326 324 320 320 321 323 320 318 318 330 328 317 316 317 316 315 316 317 316 317 319 322 324 326 333 333 337 338 338 337 336 335 335 337 337 336 335 334 333 330 328 329 329 329 330
317 321 325 326 325 322 318 318 317 317 318 315 315 317 314 314 315 316 316 314 313 312 312 312 312 312 312 312 312 312 313 314 319 328 334 337 336 335 337 339 338 336 336 334 333 329 328 329 329
318 322 324 324 324 320 318 319 318 319 317 315 313 312 313 313 314 314 313 312 311 310 310 311 311 311 311 311 311 311 311 311 312 311 312 313 325 333 336 336 335 335 335 336 335 333 332 329 329
319 320 320 319 319 319 318 317 316 318 319 317 315 312 312 312 312 311 310 310 310 309 309 310 310 311 311 311 311 311 311 311 311 311 311 311 310 311 311 316 332 336 336 336 336 336 335 333 336
316 317 316 317 316 316 318 317 317 318 316 313 312 311 311 311 310 310 309 309 309 309 309 309 310 311 311 311 311 310 310 310 310 310 310 310 310 310 311 311 311 312 318 335 336 337 336 336 337
317 318 315 315 315 316 316 317 317 314 311 310 310 310 310 310 310 309 309 308 308 308 308 309 309 310 310 309 309 309 308 308 308 308 308 309 309 309 309 309 310 310 313 319 324 338 337 337 336
317 316 316 316 315 315 316 316 315 313 311 310 310 310 310 309 309 309 308 308 307 307 307 308 308 308 308 308 308 308 308 308 308 308 308 308 308 308 308 309 310 313 315 317 318 318 331 334 337
315 316 319 317 316 316 315 316 316 314 311 311 311 310 309 309 308 308 307 307 306 306 306 307 307 307 307 307 307 307 307 307 307 307 306 307 307 307 308 308 310 312 313 313 314 315 319 327 333
317 318 320 322 317 315 315 318 318 313 312 312 312 311 310 309 308 307 306 306 305 305 305 306 306 306 306 306 306 306 306 306 306 306 306 306 306 306 306 306 308 309 308 308 310 314 318 319 328
319 320 322 319 316 316 315 318 316 313 312 313 312 311 310 309 308 307 306 305 305 304 305 305 305 305 305 305 305 306 306 306 306 306 305 305 305 305 305 305 305 306 305 306 307 309 312 318 320
319 319 319 319 317 315 316 317 317 314 313 313 312 312 311 310 308 306 305 304 304 303 303 303 303 303 303 304 305 305 306 306 305 304 304 303 303 303 304 303 303 304 304 304 304 305 306 307 313
316 316 317 318 317 314 316 316 317 314 313 313 312 312 311 310 307 305 305 304 303 303 302 302 302 301 302 303 303 303 304 305 304 304 303 302 302 301 301 301 302 301 301 302 303 302 304 305 308
318 319 320 320 319 315 317 317 317 315 314 313 313 312 311 310 307 305 304 303 302 302 301 301 301 301 301 301 301 301 302 303 303 303 302 302 302 301 300 301 301 302 301 301 301 302 302 304 306
320 321 321 320 320 316 317 318 318 317 314 313 312 312 311 310 308 305 303 303 302 301 301 300 300 300 300 300 300 301 302 302 302 301 301 301 301 300 300 300 299 299 299 300 300 300 300 302 303
320 320 320 320 320 321 320 321 320 319 315 314 312 311 310 308 307 305 303 302 301 300 300 300 300 299 298 299 299 299 300 300 300 299 300 299 299 298 297 300 300 298 297 296 298 299 300 300 301
316 317 316 317 318 319 319 320 319 319 318 316 313 311 310 308 307 304 302 301 299 299 299 299 298 298 298 297 297 297 297 298 298 298 299 298 298 297 296 296 297 296 295 296 296 298 299 301 298
315 315 315 316 317 321 319 318 319 319 319 318 315 312 310 307 305 302 300 299 298 298 298 298 297 297 296 296 296 296 296 296 296 296 296 296 296 296 295 296 295 294 293 293 293 296 297 295 296
315 315 316 316 317 318 317 317 319 317 316 317 316 312 309 306 303 301 300 298 297 297 297 296 296 296 295 295 296 296 295 295 294 294 293 294 293 293 293 291 293 293 292 292 292 293 295 294 295
314 315 315 314 314 315 315 316 317 315 312 312 314 310 306 304 302 300 298 298 297 296 296 296 296 296 294 294 295 295 295 294 294 292 292 292 292 291 291 291 291 291 292 293 293 293 294 294 296
311 312 313 313 313 314 314 314 315 313 311 311 309 306 304 302 301 298 297 296 295 295 295 295 294 294 293 293 295 294 294 293 293 292 291 291 291 291 290 290 291 289 290 291 292 292 293 292 293
311 311 312 313 314 314 313 313 315 315 312 310 308 305 303 302 299 297 294 294 293 293 294 294 292 292 291 291 293 293 292 292 292 292 290 289 289 289 290 290 289 289 289 290 291 291 291 292 291
311 311 312 312 312 314 316 316 315 315 315 311 307 304 302 301 299 294 293 293 293 293 292 291 291 291 292 291 290 291 291 291 291 290 289 288 288 288 290 291 289 289 288 288 290 291 289 290 289
311 311 311 315 313 315 317 319 316 314 314 312 308 302 301 299 297 295 292 293 292 292 292 292 291 291 291 290 290 289 289 289 289 289 288 288 287 288 290 290 290 289 288 287 289 288 287 287 287
Wind_Speed
10 12 10 9 7 7 7 6 7 7 5 2 1 5 25 24 11 8 6 6 8 11 9 9 7 6 3 2 2 2 2 3 3 4 3 3 4 4 4 5 6 6 6 6 6 7 8 7 6
8 9 9 12 9 10 7 10 9 9 12 13 15 13 12 12 15 8 8 7 6 5 4 4 4 4 5 3 2 3 4 4 5 5 5 5 6 6 6 7 7 8 8 8 8 9 9 8 7
9 8 13 7 11 11 6 7 6 14 10 12 8 16 9 6 10 6 9 7 5 3 6 4 4 4 5 5 6 5 4 5 6 6 7 7 7 8 8 8 8 9 10 10 10 10 10 9 8
6 8 10 10 16 6 6 6 5 12 9 4 16 12 10 8 2 8 10 9 6 2 3 2 2 3 4 5 6 7 7 7 7 8 8 8 9 9 9 9 10 11 11 11 12 11 11 10 9
8 12 12 13 3 3 3 2 11 13 12 8 11 9 8 5 9 11 6 7 6 3 4 3 1 3 5 7 8 8 8 9 9 9 10 11 10 10 10 10 11 12 12 13 13 13 12 12 10
12 9 11 13 8 4 3 2 11 9 8 5 10 11 7 5 10 7 6 6 5 4 3 3 3 3 4 5 6 8 9 8 10 11 12 13 13 13 13 13 13 14 14 14 15 15 14 14 13
14 9 15 14 9 7 5 4 7 11 11 6 2 9 9 6 6 7 7 6 6 4 3 2 2 3 5 6 8 7 8 9 9 11 13 14 15 15 15 16 16 16 16 16 16 16 16 16 15
12 8 17 13 8 9 6 7 4 7 9 6 7 6 10 5 6 7 7 7 6 4 4 4 4 3 3 4 5 6 6 7 9 11 13 14 14 15 16 18 19 18 19 18 18 19 19 18 18
7 8 12 10 7 11 10 9 3 4 13 10 9 11 9 7 7 6 4 7 7 4 4 3 3 4 3 4 4 6 7 8 9 11 13 13 16 15 15 16 17 20 20 21 21 21 22 21 21
9 10 10 11 4 8 8 10 11 10 13 13 13 12 10 9 7 6 4 5 8 6 4 3 3 3 4 5 7 9 11 11 12 12 13 13 14 14 18 19 20 19 22 23 24 24 24 25 25
4 11 10 5 7 3 10 5 3 8 7 4 9 9 8 7 6 5 6 6 7 7 5 5 5 6 7 8 9 10 11 13 14 16 17 16 16 18 16 18 19 21 20 20 23 25 27 29 23
8 2 7 1 0 7 7 9 4 6 11 10 10 8 7 6 6 5 5 6 7 8 5 5 6 7 8 9 9 9 11 12 13 16 18 19 20 21 21 20 21 19 23 24 23 24 26 27 24
10 7 4 3 4 4 2 9 7 10 13 12 11 10 8 6 5 5 5 6 7 7 5 4 5 5 6 7 8 10 10 11 12 13 16 18 18 20 21 22 22 20 19 20 28 26 27 28 28
4 7 9 8 10 7 9 6 13 11 13 13 13 11 9 8 5 4 4 5 7 7 7 5 6 5 6 7 8 10 13 14 13 14 17 17 18 20 20 21 19 17 18 18 22 28 31 30 29
8 12 13 15 14 9 13 11 15 18 15 13 11 10 10 8 6 4 4 5 6 6 7 8 8 9 9 10 10 10 12 12 13 14 17 21 20 19 19 19 18 16 19 22 21 23 24 31 34
9 9 12 9 17 11 10 17 16 15 15 14 13 11 9 7 7 5 4 4 5 5 6 6 6 8 8 9 9 10 11 11 12 13 15 19 19 22 22 20 17 20 22 22 21 19 21 25 27
11 12 14 10 12 9 13 13 15 14 15 15 13 12 10 8 6 4 3 3 3 4 4 5 6 7 7 8 8 10 11 11 11 12 15 18 19 21 20 19 20 24 23 21 22 21 20 25 29
10 11 9 12 10 9 14 17 13 16 15 16 14 13 11 9 6 4 3 2 2 3 4 5 6 8 8 9 9 8 9 9 10 12 15 18 18 22 24 20 22 23 24 24 25 27 27 27 34
9 11 14 14 1 6 13 16 12 17 17 18 18 16 14 11 7 4 2 1 3 4 4 6 6 8 8 8 9 9 9 8 10 12 15 17 19 20 20 22 23 23 24 26 26 28 29 29 22
12 15 17 16 12 7 16 18 15 17 19 21 20 19 17 13 9 5 2 1 3 3 4 5 6 7 7 8 8 9 9 9 9 11 14 17 19 20 19 23 25 28 28 29 27 26 29 26 23
15 16 17 19 14 16 16 23 19 16 18 20 20 20 17 15 13 7 4 2 1 2 3 4 6 7 7 7 8 9 8 8 10 13 14 17 18 19 20 21 22 23 25 25 24 24 25 32 33
19 17 18 14 18 17 18 21 17 11 18 18 23 20 17 15 11 8 6 4 1 1 3 4 5 7 9 9 9 10 10 11 12 13 14 15 17 18 20 25 24 22 23 22 25 23 24 27 32
14 8 12 15 17 18 26 14 18 17 16 22 23 22 20 17 13 9 6 4 2 2 2 4 6 7 8 9 10 10 10 11 12 14 16 16 16 17 18 24 25 25 25 26 26 25 23 24 27
11 14 16 16 14 15 24 18 23 19 14 22 24 23 19 14 11 9 6 5 3 3 4 4 6 7 8 9 9 11 12 12 13 15 15 16 16 16 18 24 24 24 26 27 27 27 24 23 25
13 11 9 10 11 16 20 18 15 6 7 7 20 23 17 14 12 8 6 4 3 4 5 5 6 6 7 8 10 10 11 12 12 14 15 17 18 18 20 23 24 25 26 27 26 27 25 24 26
9 14 12 15 15 15 17 11 12 10 6 3 16 18 15 13 10 7 5 3 3 4 4 5 5 5 8 8 9 9 10 10 10 12 14 14 16 18 20 22 23 25 25 27 28 27 27 26 28
6 15 16 18 19 16 20 29 5 9 7 12 19 18 15 13 11 7 5 4 3 4 5 5 5 5 7 7 8 9 9 10 11 11 13 14 15 17 20 22 23 24 26 27 28 26 26 28 28
16 15 12 10 15 21 16 21 16 11 9 10 12 19 16 15 12 9 6 4 3 3 4 4 4 6 6 6 7 8 9 9 10 11 12 14 15 17 19 21 22 23 26 26 26 25 25 27 28
14 17 16 17 15 16 17 13 3 4 9 14 16 16 17 15 12 8 5 3 2 1 1 1 4 5 6 6 6 8 9 10 10 10 12 14 15 17 19 20 22 24 26 26 26 26 26 27 29
16 20 20 11 15 13 15 16 5 6 3 15 19 19 18 15 11 7 4 2 1 0 1 2 3 5 5 6 6 8 10 10 10 12 14 15 16 17 19 20 22 23 26 26 26 26 26 25 28
Wind_Direction
327 326 301 283 243 231 242 143 17 135 108 92 67 59 65 41 28 85 91 121 77 116 137 169 172 166 175 208 230 243 248 245 251 255 251 255 264 278 283 286 273 260 261 273 280 288 297 301 305
325 310 280 271 251 234 173 93 208 84 107 112 113 109 71 75 49 80 129 100 68 144 133 156 169 189 182 189 228 254 258 262 251 243 251 250 255 264 273 275 270 262 267 273 277 286 293 296 301
324 285 275 238 245 273 83 140 96 114 140 130 85 65 40 27 24 72 73 73 62 125 113 136 171 205 232 230 220 216 243 254 260 255 249 248 256 259 262 264 263 263 266 271 277 282 287 288 292
294 240 245 252 245 74 26 108 184 148 168 218 105 89 84 34 84 84 62 72 73 155 136 147 211 245 259 261 261 254 233 228 244 251 250 251 257 265 263 261 260 261 263 267 274 280 281 283 285
263 264 264 243 212 69 113 128 179 165 166 137 141 94 80 33 81 73 37 77 89 84 66 52 352 299 290 284 281 281 269 257 240 242 254 256 252 255 260 263 263 262 263 265 270 273 277 278 279
262 260 256 243 173 128 85 191 179 179 134 109 99 105 85 92 90 73 70 76 79 83 77 66 43 21 358 333 300 291 285 279 271 264 249 250 253 256 258 259 260 262 263 265 268 271 272 274 274
257 269 263 290 128 185 119 153 150 143 134 71 70 125 127 105 97 85 72 59 58 49 31 23 353 338 340 337 340 320 298 293 286 276 275 273 261 257 259 259 263 264 263 263 264 267 268 270 270
278 287 271 255 170 188 131 117 103 153 86 119 25 128 150 118 117 116 84 60 51 51 45 39 41 39 27 360 338 333 332 323 305 291 279 274 283 272 274 272 266 265 265 264 264 264 265 265 265
275 266 261 236 241 128 158 147 114 95 116 66 58 82 107 111 115 126 94 56 45 36 30 28 27 24 15 10 1 351 343 334 322 310 304 290 275 273 279 271 269 268 266 264 263 264 265 264 263
264 280 332 3 8 112 172 197 149 143 130 101 88 86 95 99 110 111 90 44 37 27 19 7 360 358 348 340 329 321 317 320 321 319 315 308 303 292 283 277 277 272 267 266 265 261 262 262 261
304 272 3 30 21 326 178 123 175 211 113 85 120 113 104 106 101 91 72 55 43 34 23 5 350 343 337 327 325 321 318 316 315 311 308 307 304 299 297 293 285 275 275 271 263 264 260 258 251
280 278 306 72 352 252 211 159 104 33 102 125 127 123 117 107 100 86 63 48 38 29 13 356 337 321 312 314 319 320 318 318 316 314 306 306 305 301 294 289 286 290 281 276 271 262 260 256 247
247 274 257 209 233 237 156 209 146 129 136 138 137 131 125 119 101 81 68 47 35 26 2 347 338 328 324 322 321 325 327 328 330 323 313 314 310 305 302 299 294 290 288 287 270 269 265 258 255
13 291 270 236 227 215 220 195 181 168 160 156 157 154 147 138 126 100 63 42 37 23 8 356 348 344 341 341 340 339 336 338 341 340 329 320 319 311 310 308 307 307 297 288 279 269 263 263 263
282 274 252 232 233 220 241 212 226 158 172 169 171 165 157 146 128 113 74 51 36 19 8 359 351 349 353 358 358 355 350 349 345 346 340 336 334 322 314 310 312 317 295 292 294 286 276 267 262
262 257 269 267 197 206 216 264 152 164 183 187 186 182 177 162 141 117 84 52 36 20 9 355 350 354 1 1 2 2 360 4 358 356 351 344 343 337 331 324 318 298 301 302 299 295 294 283 272
215 262 238 181 197 201 217 256 143 178 195 196 198 198 197 184 162 138 109 78 41 10 3 358 353 356 3 1 7 3 0 3 1 357 352 352 348 344 343 332 318 312 314 310 307 299 280 267 263
305 212 249 254 164 230 234 242 157 188 203 211 210 209 207 208 194 179 138 107 62 9 1 5 355 349 0 2 8 3 359 355 356 355 352 355 352 347 350 346 337 331 322 316 308 300 295 288 268
288 271 269 276 76 285 259 263 234 187 207 214 210 207 211 210 213 199 163 79 62 18 12 10 359 354 5 1 2 350 348 342 349 352 352 355 353 351 352 346 343 339 331 323 317 314 308 297 293
255 264 263 266 256 228 269 262 250 179 210 217 209 210 209 203 208 206 186 103 48 22 14 16 12 2 359 357 355 344 339 337 337 344 352 348 351 351 353 349 347 342 336 331 324 315 306 299 305
252 259 271 275 283 215 265 267 254 202 201 216 214 214 207 208 206 203 189 155 73 29 21 20 20 11 357 5 354 356 351 348 340 345 346 349 346 348 350 352 349 342 337 331 323 317 310 300 292
271 275 293 256 272 263 259 273 275 218 193 206 208 210 200 207 204 198 184 168 144 91 36 27 27 16 5 0 5 3 357 350 343 343 339 348 348 348 346 346 349 344 336 328 324 320 308 304 298
280 321 289 282 271 275 261 258 261 278 193 208 207 205 206 200 200 195 182 161 115 83 44 28 30 16 8 5 3 6 355 350 344 343 347 346 347 349 342 342 347 345 339 334 331 325 314 299 297
291 289 271 266 266 260 266 268 274 267 241 198 191 201 200 194 191 186 173 139 107 65 37 33 29 13 4 7 6 5 356 351 351 347 349 345 345 343 340 344 345 344 337 337 334 334 322 311 302
241 266 270 248 229 249 263 266 257 73 45 355 170 180 182 188 188 181 162 148 100 68 43 29 21 11 359 9 11 2 356 350 354 350 345 348 344 342 341 344 343 341 339 340 336 336 336 326 314
258 243 252 279 276 285 285 275 289 71 88 79 136 153 168 181 180 168 151 129 99 62 42 34 23 359 357 11 7 359 356 351 350 346 347 343 341 343 340 344 343 342 343 342 342 342 342 332 321
262 238 258 271 271 272 270 273 174 138 117 126 134 148 168 177 174 163 138 112 73 57 32 22 16 2 359 13 4 356 352 351 349 351 349 343 343 346 345 347 346 345 348 347 347 345 345 338 333
250 278 276 246 262 264 265 269 267 160 162 161 163 164 172 174 173 166 169 165 114 65 33 20 4 6 352 9 6 350 353 355 354 351 350 349 349 350 351 350 350 348 351 349 351 350 346 345 339
269 232 237 257 264 269 280 282 50 4 191 184 178 171 173 175 178 191 187 174 163 135 84 26 352 347 352 2 8 356 358 0 357 354 353 354 353 353 356 356 354 357 356 355 357 358 352 353 346
271 268 277 273 263 261 262 263 12 350 283 179 180 174 173 177 172 159 160 176 171 113 345 1 339 346 351 351 356 1 359 357 1 359 354 358 360 359 360 1 1 3 1 358 4 3 0 0 353